Fayetteville, Georgia, United States (30214)
Lat: 33.45N, Lon: 84.45W
Wx Zone: GAZ054
Local Info
Past Weather Observations for Today

NOTE: This archive is for the closest National Weather Service station to Fayetteville. Information may differ from the station used for current weather conditions.

Click here for Long-term Archive

Time Weather Temperature Dewpoint Humidity Pressure Winds Precip Visibility
14:53
Overcast
54°F / 12°C 46°F / 8°C 77% 30.15 in
(1021 mb)
NNW 3.5 mph
(NNW 6 kph)
- 7SM
14:43
Overcast
54°F / 12°C 46°F / 8°C 77% 30.15 in
(1021 mb)
Calm - 7SM
14:12
Overcast
52°F / 11°C 46°F / 8°C 82% 30.15 in
(1021 mb)
Calm - 7SM
13:53
Overcast
52°F / 11°C 46°F / 8°C 82% 30.15 in
(1021 mb)
Calm - 7SM
12:53
Overcast
Hazy
52°F / 11°C 46°F / 8°C 82% 30.18 in
(1022 mb)
Calm - 6SM
12:43
Overcast
Hazy
52°F / 11°C 46°F / 8°C 82% 30.18 in
(1022 mb)
Calm - 6SM
11:53
Overcast
Fog And Mist
50°F / 10°C 46°F / 8°C 88% 30.21 in
(1023 mb)
Calm - 5SM
10:53
Overcast
Fog And Mist
48°F / 9°C 45°F / 7°C 87% 30.21 in
(1023 mb)
E 3.5 mph
(E 6 kph)
- 4SM
10:48
Overcast
Fog And Mist
48°F / 9°C 45°F / 7°C 87% 30.21 in
(1023 mb)
E 3.5 mph
(E 6 kph)
- 4SM
10:18
Overcast
Fog And Mist
46°F / 8°C 45°F / 7°C 93% 30.21 in
(1023 mb)
NE 3.5 mph
(NE 6 kph)
- 4SM
09:53
Overcast
Fog And Mist
46°F / 8°C 45°F / 7°C 93% 30.21 in
(1023 mb)
NE 3.5 mph
(NE 6 kph)
- 3SM
08:53
Overcast
Fog And Mist
45°F / 7°C 43°F / 6°C 93% 30.21 in
(1023 mb)
NNW 3.5 mph
(NNW 6 kph)
0.00 in
(0.00 mm)
3SM
08:35
Mostly Cloudy
Fog And Mist
45°F / 7°C 43°F / 6°C 93% 30.21 in
(1023 mb)
N 3.5 mph
(N 6 kph)
0.00 in
(0.00 mm)
3SM
08:00
Overcast
Fog And Mist
43°F / 6°C 43°F / 6°C 100% 30.18 in
(1022 mb)
Calm 0.00 in
(0.00 mm)
2 1/2SM
07:53
Overcast
Light Rain
43°F / 6°C 43°F / 6°C 100% 30.18 in
(1022 mb)
Calm 0.01 in
(0.25 mm)
4SM
06:53
Overcast
Light Rain
43°F / 6°C 41°F / 5°C 93% 30.15 in
(1021 mb)
N 3.5 mph
(N 6 kph)
0.02 in
(0.51 mm)
4SM
05:53
Overcast
Light Rain
43°F / 6°C 41°F / 5°C 93% 30.15 in
(1021 mb)
Calm 0.06 in
(1.52 mm)
3SM
05:51
Overcast
Light Rain
43°F / 6°C 41°F / 5°C 93% 30.15 in
(1021 mb)
Calm 0.06 in
(1.52 mm)
3SM
05:38
Overcast
Light Rain
43°F / 6°C 41°F / 5°C 93% 30.12 in
(1020 mb)
NNW 3.5 mph
(NNW 6 kph)
0.05 in
(1.27 mm)
2 1/2SM
05:24
Overcast
Light Rain
43°F / 6°C 41°F / 5°C 93% 30.12 in
(1020 mb)
E 3.5 mph
(E 6 kph)
0.04 in
(1.02 mm)
3SM
04:53
Overcast
Rain
43°F / 6°C 39°F / 4°C 87% 30.15 in
(1021 mb)
Calm 0.04 in
(1.02 mm)
2 1/2SM
04:40
Overcast
Rain
43°F / 6°C 41°F / 5°C 93% 30.15 in
(1021 mb)
Calm 0.02 in
(0.51 mm)
2SM
03:53
Overcast
Light Rain
43°F / 6°C 39°F / 4°C 87% 30.12 in
(1020 mb)
NE 3.5 mph
(NE 6 kph)
0.03 in
(0.76 mm)
4SM
02:53
Overcast
Light Rain
43°F / 6°C 39°F / 4°C 87% 30.15 in
(1021 mb)
Calm 0.04 in
(1.02 mm)
3SM
01:53
Overcast
Light Rain
43°F / 6°C 39°F / 4°C 87% 30.15 in
(1021 mb)
Calm 0.03 in
(0.76 mm)
4SM
00:53
Overcast
Light Rain
43°F / 6°C 37°F / 3°C 81% 30.15 in
(1021 mb)
N 3.5 mph
(N 6 kph)
0.03 in
(0.76 mm)
6SM
Time Weather Temperature Dewpoint Humidity Pressure Winds Precip Visibility


Weather for websites

WeatherForYou.com, LLC is not responsible for any damages or problems caused by this service. Current weather conditions are obtained from the closest station including government and personal stations which may have varying degrees of accuracy. Weather forecasts are derived from the NOAA NDFD. Like all things, this site belongs to Jesus Christ... He just trusts me to maintain it. If you have any questions or comments email webmaster@weatherforyou.com

Copyright © 2014, WeatherForYou.com LLC. All rights reserved.